weather.gov     
National Weather Service

Terminal Aerodrome Forecast
NWS Homepage
This page is being discontinued on March 12, 2014.
The same data is available at this site. Please update your bookmarks.
Thank you, and we apologize for the inconvenience.
Please send an email to SR-SRH.Webmaster@noaa.gov with any concerns.


Current Version
Previous Version:    01  02  03  04  05  06  07  08  09  10  11  12  13  14  15  16  17  18  19  20  21  22  23  24  25  26  27  28  29  30  
   31  32  33  34  35  36  37  38  39  40  41  42  43  44  45  46  47  48  49  
[Printable]
308
FTUS44 KLCH 221900 AAB
TAFLCH
TAF AMD
KLCH 221913Z 2219/2318 23011G17KT P6SM FEW026
     FM222300 22010G15KT P6SM SCT025 BKN045
     FM230500 23006KT 2SM BR SCT004 OVC009
      TEMPO 2307/2311 1/2SM FG VV003
     FM231100 VRB05KT 1/2SM FG VV002
     FM231500 15006KT 2SM BR OVC015=


U.S. Dept. of Commerce
NOAA National Weather Service
1325 East West Highway
Silver Spring, MD 20910
E-mail: w-nws.webmaster@noaa.gov
Page last modified: May 16, 2007
NATIONAL WEATHER SERVICE: for Safety, for Work, for Fun - FOR LIFE